User: anonymous   Login
Location: Unspecified
(0.0000°N, 0.0000°E)
Time: 05:22:18
(UTC+00:00)
Language:

STARLINK-30085 - Orbit

View from above orbital plane
View from above orbital plane
View from above satellite
View from above satellite

Ground track
Ground track

The orbit is defined by the following mean orbital elements,

1 56709U          26145.45492442 +.00000000 +00000-0 +14854-4 0 00008
2 56709  43.0024 197.2418 0001059 278.2314  81.8417 15.27578136    00
Epoch (UTC): 25 May 2026 10:55:05
Eccentricity: 0.0001059
inclination: 43.0024°
perigee height: 482 km
apogee height: 484 km
right ascension of ascending node: 197.2418°
argument of perigee: 278.2314°
revolutions per day: 15.27578136
mean anomaly at epoch: 81.8417°

The dashed part of the orbit path shows where the satellite is in the earth's shadow,  

DLR